| time (UTC) | temp F | wind direction | speed MPH | gust MPH | rain 1hr in | rain 24hr in | rain mn in | humidity % | barometer mb |
| 20260901180035 | 71 | 128 | 2.0 | 9.0 | 0.00 | 0.00 | 0.00 | 64 | 1020.5 |
| 20260901175523 | 71 | 0 | 3.0 | 9.0 | 0.00 | 0.00 | 0.00 | 62 | 1020.6 |
| 20260901175020 | 72 | 133 | 3.0 | 10.0 | 0.00 | 0.00 | 0.00 | 63 | 1020.6 |
| 20260901174534 | 72 | 113 | 4.0 | 10.0 | 0.00 | 0.00 | 0.00 | 62 | 1020.5 |
| 20260901174019 | 71 | 134 | 3.0 | 12.0 | 0.00 | 0.00 | 0.00 | 63 | 1020.5 |
| 20260901173521 | 71 | 136 | 5.0 | 12.0 | 0.00 | 0.00 | 0.00 | 63 | 1020.4 |
| 20260901173040 | 70 | 136 | 4.0 | 11.0 | 0.00 | 0.00 | 0.00 | 64 | 1020.4 |
| 20260901172519 | 70 | 360 | 6.0 | 11.0 | 0.00 | 0.00 | 0.00 | 62 | 1020.4 |
| 20260901172020 | 70 | 360 | 6.0 | 11.0 | 0.00 | 0.00 | 0.00 | 63 | 1020.3 |
| 20260901171537 | 70 | 101 | 5.0 | 10.0 | 0.00 | 0.00 | 0.00 | 65 | 1020.4 |
| 20260901171019 | 70 | 360 | 6.0 | 11.0 | 0.00 | 0.00 | 0.00 | 64 | 1020.4 |
| 20260901170518 | 70 | 77 | 5.0 | 11.0 | 0.00 | 0.00 | 0.00 | 64 | 1020.5 |
| 20260901170035 | 71 | 68 | 2.0 | 12.0 | 0.00 | 0.00 | 0.00 | 64 | 1020.5 |
| 20260901165521 | 71 | 360 | 5.0 | 12.0 | 0.00 | 0.00 | 0.00 | 64 | 1020.5 |
| 20260901165018 | 70 | 360 | 2.0 | 11.0 | 0.00 | 0.00 | 0.00 | 64 | 1020.5 |
| 20260901164538 | 70 | 97 | 6.0 | 12.0 | 0.00 | 0.00 | 0.00 | 64 | 1020.4 |
| 20260901164022 | 70 | 129 | 6.0 | 12.0 | 0.00 | 0.00 | 0.00 | 63 | 1020.4 |
| 20260901163521 | 70 | 360 | 4.0 | 11.0 | 0.00 | 0.00 | 0.00 | 67 | 1020.4 |
| 20260901163039 | 69 | 117 | 3.0 | 11.0 | 0.00 | 0.00 | 0.00 | 70 | 1020.5 |
| 20260901162520 | 68 | 137 | 1.0 | 7.0 | 0.00 | 0.00 | 0.00 | 69 | 1020.6 |
| 20260901162021 | 68 | 0 | 0.0 | 7.0 | 0.00 | 0.00 | 0.00 | 71 | 1020.6 |
| 20260901161534 | 67 | 9 | 1.0 | 5.0 | 0.00 | 0.00 | 0.00 | 69 | 1020.7 |
| 20260901161017 | 67 | 0 | 0.0 | 5.0 | 0.00 | 0.00 | 0.00 | 71 | 1020.7 |
| 20260901160516 | 67 | 360 | 0.0 | 5.0 | 0.00 | 0.00 | 0.00 | 69 | 1020.7 |
| 20260901160038 | 67 | 37 | 2.0 | 6.0 | 0.00 | 0.00 | 0.00 | 70 | 1020.8 |
| 20260901155518 | 67 | 360 | 3.0 | 6.0 | 0.00 | 0.00 | 0.00 | 69 | 1020.8 |
| 20260901155019 | 67 | 0 | 1.0 | 5.0 | 0.00 | 0.00 | 0.00 | 70 | 1020.8 |
| 20260901154557 | 67 | 0 | 2.0 | 5.0 | 0.00 | 0.00 | 0.00 | 70 | 1020.8 |
| 20260901154023 | 66 | 32 | 1.0 | 6.0 | 0.00 | 0.00 | 0.00 | 70 | 1020.8 |
| 20260901153524 | 66 | 360 | 2.0 | 6.0 | 0.00 | 0.00 | 0.00 | 71 | 1020.9 |
| 20260901153045 | 66 | 360 | 1.0 | 11.0 | 0.00 | 0.00 | 0.00 | 70 | 1020.9 |
| 20260901152519 | 66 | 360 | 2.0 | 11.0 | 0.00 | 0.00 | 0.00 | 71 | 1020.8 |
| 20260901152018 | 65 | 360 | 5.0 | 11.0 | 0.00 | 0.00 | 0.00 | 72 | 1020.8 |
| 20260901151535 | 65 | 55 | 4.0 | 11.0 | 0.00 | 0.00 | 0.00 | 72 | 1020.8 |
| 20260901151018 | 64 | 360 | 1.0 | 6.0 | 0.00 | 0.00 | 0.00 | 73 | 1020.8 |
| 20260901150516 | 64 | 360 | 0.0 | 6.0 | 0.00 | 0.00 | 0.00 | 77 | 1020.8 |
| 20260901150035 | 63 | 0 | 1.0 | 6.0 | 0.00 | 0.00 | 0.00 | 74 | 1020.8 |
| 20260901145518 | 63 | 360 | 1.0 | 6.0 | 0.00 | 0.00 | 0.00 | 75 | 1020.7 |
| 20260901145020 | 63 | 360 | 1.0 | 6.0 | 0.00 | 0.00 | 0.00 | 75 | 1020.6 |
| 20260901144539 | 63 | 360 | 2.0 | 6.0 | 0.00 | 0.00 | 0.00 | 77 | 1020.5 |
| 20260901144019 | 63 | 360 | 2.0 | 6.0 | 0.00 | 0.00 | 0.00 | 75 | 1020.5 |
| 20260901143519 | 63 | 360 | 2.0 | 6.0 | 0.00 | 0.00 | 0.00 | 75 | 1020.6 |
| 20260901143039 | 63 | 360 | 1.0 | 6.0 | 0.00 | 0.00 | 0.00 | 76 | 1020.5 |
| 20260901142518 | 62 | 360 | 1.0 | 8.0 | 0.00 | 0.00 | 0.00 | 76 | 1020.5 |
| 20260901142020 | 62 | 0 | 2.0 | 8.0 | 0.00 | 0.00 | 0.00 | 75 | 1020.6 |
| 20260901141537 | 62 | 360 | 2.0 | 6.0 | 0.00 | 0.00 | 0.00 | 75 | 1020.4 |
| 20260901141017 | 62 | 360 | 1.0 | 8.0 | 0.00 | 0.00 | 0.00 | 75 | 1020.5 |
| 20260901140516 | 62 | 0 | 2.0 | 8.0 | 0.00 | 0.00 | 0.00 | 73 | 1020.6 |
| 20260901140039 | 62 | 360 | 2.0 | 8.0 | 0.00 | 0.00 | 0.00 | 73 | 1020.8 |
| 20260901135518 | 62 | 360 | 3.0 | 8.0 | 0.00 | 0.00 | 0.00 | 74 | 1020.8 |
| 20260901135017 | 61 | 0 | 2.0 | 6.0 | 0.00 | 0.00 | 0.00 | 73 | 1020.8 |
| 20260901134538 | 61 | 0 | 0.0 | 5.0 | 0.00 | 0.00 | 0.00 | 74 | 1020.8 |
| 20260901134020 | 61 | 0 | 0.0 | 12.0 | 0.00 | 0.00 | 0.00 | 73 | 1020.9 |
| 20260901133519 | 61 | 360 | 1.0 | 12.0 | 0.00 | 0.00 | 0.00 | 73 | 1020.8 |
| 20260901133038 | 61 | 360 | 5.0 | 15.0 | 0.00 | 0.00 | 0.00 | 73 | 1020.7 |
| 20260901132517 | 61 | 360 | 7.0 | 15.0 | 0.00 | 0.00 | 0.00 | 73 | 1020.7 |
| 20260901132018 | 61 | 360 | 6.0 | 15.0 | 0.00 | 0.00 | 0.00 | 73 | 1020.7 |
| 20260901131533 | 61 | 360 | 5.0 | 11.0 | 0.00 | 0.00 | 0.00 | 73 | 1020.6 |
| 20260901131018 | 61 | 360 | 7.0 | 13.0 | 0.00 | 0.00 | 0.00 | 74 | 1020.6 |
| 20260901130521 | 61 | 360 | 6.0 | 15.0 | 0.00 | 0.00 | 0.00 | 74 | 1020.6 |
| 20260901130040 | 61 | 360 | 7.0 | 15.0 | 0.00 | 0.00 | 0.00 | 73 | 1020.6 |
| 20260901125517 | 61 | 360 | 6.0 | 14.0 | 0.00 | 0.00 | 0.00 | 73 | 1020.6 |
| 20260901125022 | 61 | 360 | 7.0 | 14.0 | 0.00 | 0.00 | 0.00 | 74 | 1020.7 |
| 20260901124545 | 61 | 360 | 7.0 | 13.0 | 0.00 | 0.00 | 0.00 | 74 | 1020.9 |
| 20260901124020 | 61 | 360 | 8.0 | 14.0 | 0.00 | 0.00 | 0.00 | 74 | 1020.8 |
| 20260901123520 | 61 | 360 | 8.0 | 15.0 | 0.00 | 0.00 | 0.00 | 74 | 1020.8 |
| 20260901123037 | 61 | 360 | 9.0 | 15.0 | 0.00 | 0.00 | 0.00 | 74 | 1020.8 |
| 20260901122520 | 61 | 360 | 6.0 | 15.0 | 0.00 | 0.00 | 0.00 | 73 | 1020.8 |
| 20260901122021 | 61 | 360 | 8.0 | 13.0 | 0.00 | 0.00 | 0.00 | 73 | 1020.7 |
| 20260901121534 | 61 | 360 | 6.0 | 13.0 | 0.00 | 0.00 | 0.00 | 73 | 1020.8 |
| 20260901121020 | 61 | 360 | 6.0 | 14.0 | 0.00 | 0.00 | 0.00 | 74 | 1020.8 |
| 20260901120517 | 61 | 360 | 6.0 | 14.0 | 0.00 | 0.00 | 0.00 | 74 | 1020.9 |
| 20260901120037 | 61 | 360 | 6.0 | 14.0 | 0.00 | 0.00 | 0.00 | 73 | 1020.9 |
| 20260901115520 | 61 | 360 | 5.0 | 14.0 | 0.00 | 0.00 | 0.00 | 74 | 1020.9 |
| 20260901115019 | 61 | 360 | 6.0 | 14.0 | 0.00 | 0.00 | 0.00 | 74 | 1020.9 |
| 20260901114534 | 61 | 360 | 6.0 | 14.0 | 0.00 | 0.00 | 0.00 | 74 | 1020.8 |
| 20260901114019 | 61 | 360 | 7.0 | 14.0 | 0.00 | 0.00 | 0.00 | 74 | 1020.7 |
| 20260901113517 | 61 | 360 | 7.0 | 14.0 | 0.00 | 0.00 | 0.00 | 74 | 1020.6 |
| 20260901113044 | 61 | 360 | 9.0 | 14.0 | 0.00 | 0.00 | 0.00 | 75 | 1020.5 |
| 20260901112516 | 61 | 360 | 8.0 | 15.0 | 0.00 | 0.00 | 0.00 | 75 | 1020.6 |
| 20260901112017 | 61 | 360 | 7.0 | 15.0 | 0.00 | 0.00 | 0.00 | 75 | 1020.5 |
| 20260901111536 | 61 | 360 | 8.0 | 15.0 | 0.00 | 0.00 | 0.00 | 75 | 1020.5 |
| 20260901111016 | 61 | 360 | 7.0 | 15.0 | 0.00 | 0.00 | 0.00 | 74 | 1020.3 |
| 20260901110518 | 61 | 360 | 8.0 | 14.0 | 0.00 | 0.00 | 0.00 | 76 | 1020.2 |
| 20260901110047 | 61 | 360 | 8.0 | 16.0 | 0.00 | 0.00 | 0.00 | 75 | 1020.2 |
| 20260901105521 | 61 | 360 | 9.0 | 16.0 | 0.00 | 0.00 | 0.00 | 75 | 1020.2 |
| 20260901105022 | 61 | 360 | 9.0 | 16.0 | 0.00 | 0.00 | 0.00 | 75 | 1020.2 |
| 20260901104534 | 61 | 360 | 7.0 | 16.0 | 0.00 | 0.00 | 0.00 | 76 | 1020.1 |
| 20260901104018 | 61 | 360 | 9.0 | 16.0 | 0.00 | 0.00 | 0.00 | 76 | 1020.1 |
| 20260901103518 | 61 | 360 | 7.0 | 15.0 | 0.00 | 0.00 | 0.00 | 75 | 1020.2 |
| 20260901103034 | 61 | 360 | 7.0 | 14.0 | 0.00 | 0.00 | 0.00 | 75 | 1020.2 |
| 20260901102518 | 61 | 360 | 6.0 | 13.0 | 0.00 | 0.00 | 0.00 | 75 | 1020.1 |
| 20260901102017 | 61 | 360 | 6.0 | 14.0 | 0.00 | 0.00 | 0.00 | 75 | 1019.9 |
| 20260901101539 | 61 | 360 | 8.0 | 16.0 | 0.00 | 0.00 | 0.00 | 75 | 1019.9 |
| 20260901101016 | 61 | 360 | 7.0 | 16.0 | 0.00 | 0.00 | 0.00 | 76 | 1019.8 |
| 20260901100520 | 61 | 360 | 6.0 | 15.0 | 0.00 | 0.00 | 0.00 | 76 | 1019.7 |
| 20260901100037 | 61 | 360 | 7.0 | 15.0 | 0.00 | 0.00 | 0.00 | 76 | 1019.7 |
| 20260901095520 | 61 | 360 | 8.0 | 13.0 | 0.00 | 0.00 | 0.00 | 76 | 1019.6 |
| 20260901095021 | 62 | 360 | 7.0 | 14.0 | 0.00 | 0.00 | 0.00 | 76 | 1019.7 |
| 20260901094537 | 62 | 360 | 8.0 | 14.0 | 0.00 | 0.00 | 0.00 | 75 | 1019.8 |
| 20260901094021 | 62 | 360 | 7.0 | 14.0 | 0.00 | 0.00 | 0.00 | 74 | 1019.7 |
| 20260901093521 | 62 | 360 | 6.0 | 14.0 | 0.00 | 0.00 | 0.00 | 74 | 1019.9 |
| 20260901093040 | 62 | 360 | 6.0 | 14.0 | 0.00 | 0.00 | 0.00 | 75 | 1020.0 |
| 20260901092518 | 62 | 360 | 7.0 | 14.0 | 0.00 | 0.00 | 0.00 | 75 | 1020.0 |
| 20260901092019 | 62 | 360 | 6.0 | 13.0 | 0.00 | 0.00 | 0.00 | 76 | 1020.0 |
| 20260901091535 | 62 | 360 | 5.0 | 13.0 | 0.00 | 0.00 | 0.00 | 76 | 1020.0 |
| 20260901091018 | 62 | 360 | 6.0 | 13.0 | 0.00 | 0.00 | 0.00 | 76 | 1019.9 |
| 20260901090518 | 62 | 360 | 7.0 | 13.0 | 0.00 | 0.00 | 0.00 | 76 | 1019.9 |
| 20260901090035 | 62 | 360 | 8.0 | 13.0 | 0.00 | 0.00 | 0.00 | 76 | 1019.9 |
| 20260901085519 | 62 | 360 | 7.0 | 14.0 | 0.00 | 0.00 | 0.00 | 77 | 1020.0 |
| 20260901085017 | 62 | 360 | 7.0 | 14.0 | 0.00 | 0.00 | 0.00 | 77 | 1020.0 |
| 20260901084538 | 62 | 360 | 8.0 | 15.0 | 0.00 | 0.00 | 0.00 | 77 | 1019.9 |
| 20260901084019 | 62 | 360 | 7.0 | 15.0 | 0.00 | 0.00 | 0.00 | 77 | 1019.9 |
| 20260901083524 | 62 | 360 | 7.0 | 15.0 | 0.00 | 0.00 | 0.00 | 77 | 1019.8 |
| 20260901083033 | 62 | 360 | 7.0 | 13.0 | 0.00 | 0.00 | 0.00 | 77 | 1020.0 |
| 20260901082517 | 62 | 360 | 8.0 | 14.0 | 0.00 | 0.00 | 0.00 | 77 | 1020.0 |
| 20260901082017 | 62 | 360 | 6.0 | 14.0 | 0.00 | 0.00 | 0.00 | 77 | 1020.0 |
| 20260901081535 | 62 | 360 | 6.0 | 11.0 | 0.00 | 0.00 | 0.00 | 77 | 1020.0 |
| 20260901081021 | 62 | 360 | 6.0 | 13.0 | 0.00 | 0.00 | 0.00 | 77 | 1020.0 |
| 20260901080517 | 62 | 360 | 5.0 | 13.0 | 0.00 | 0.00 | 0.00 | 77 | 1020.1 |
| 20260901080053 | 62 | 360 | 7.0 | 12.0 | 0.00 | 0.00 | 0.00 | 77 | 1020.2 |
| 20260901075521 | 62 | 360 | 6.0 | 12.0 | 0.00 | 0.00 | 0.00 | 78 | 1020.1 |
| 20260901075020 | 62 | 360 | 7.0 | 12.0 | 0.00 | 0.00 | 0.00 | 78 | 1020.2 |
| 20260901074537 | 62 | 360 | 7.0 | 12.0 | 0.00 | 0.00 | 0.00 | 79 | 1020.2 |
| 20260901074018 | 62 | 360 | 6.0 | 12.0 | 0.00 | 0.00 | 0.00 | 79 | 1020.2 |
| 20260901073517 | 62 | 360 | 6.0 | 12.0 | 0.00 | 0.00 | 0.00 | 79 | 1020.2 |
| 20260901073036 | 62 | 360 | 7.0 | 12.0 | 0.00 | 0.00 | 0.00 | 78 | 1020.1 |
| 20260901072516 | 62 | 360 | 7.0 | 12.0 | 0.00 | 0.00 | 0.00 | 78 | 1020.1 |
| 20260901072017 | 62 | 360 | 7.0 | 12.0 | 0.00 | 0.00 | 0.00 | 77 | 1020.2 |
| 20260901071535 | 62 | 360 | 7.0 | 12.0 | 0.00 | 0.00 | 0.00 | 77 | 1020.3 |
| 20260901071017 | 63 | 360 | 6.0 | 11.0 | 0.00 | 0.00 | 0.00 | 76 | 1020.4 |
| 20260901070523 | 63 | 360 | 6.0 | 10.0 | 0.00 | 0.00 | 0.00 | 75 | 1020.4 |
| 20260901070045 | 63 | 360 | 6.0 | 10.0 | 0.00 | 0.00 | 0.00 | 75 | 1020.4 |
| 20260901065520 | 63 | 360 | 6.0 | 12.0 | 0.00 | 0.00 | 0.00 | 74 | 1020.4 |
| 20260901065020 | 63 | 360 | 7.0 | 12.0 | 0.00 | 0.00 | 0.00 | 73 | 1020.4 |
| 20260901064537 | 63 | 360 | 6.0 | 11.0 | 0.00 | 0.00 | 0.00 | 72 | 1020.4 |
| 20260901064018 | 64 | 360 | 5.0 | 9.0 | 0.00 | 0.00 | 0.00 | 72 | 1020.4 |
| 20260901063519 | 64 | 360 | 4.0 | 8.0 | 0.00 | 0.00 | 0.00 | 71 | 1020.3 |
| 20260901063047 | 64 | 360 | 4.0 | 8.0 | 0.00 | 0.00 | 0.00 | 70 | 1020.3 |
| 20260901062518 | 64 | 360 | 4.0 | 8.0 | 0.00 | 0.00 | 0.00 | 70 | 1020.3 |
| 20260901062018 | 64 | 360 | 4.0 | 8.0 | 0.00 | 0.00 | 0.00 | 71 | 1020.2 |
| 20260901061538 | 64 | 360 | 4.0 | 6.0 | 0.00 | 0.00 | 0.00 | 70 | 1020.2 |
| 20260901061020 | 64 | 360 | 4.0 | 6.0 | 0.00 | 0.00 | 0.00 | 70 | 1020.3 |
| 20260901060518 | 64 | 360 | 3.0 | 6.0 | 0.00 | 0.00 | 0.00 | 70 | 1020.4 |
| 20260901060037 | 64 | 360 | 4.0 | 6.0 | 0.00 | 0.00 | 0.00 | 69 | 1020.4 |
| 20260901055519 | 64 | 360 | 4.0 | 6.0 | 0.00 | 0.00 | 0.00 | 69 | 1020.6 |
| 20260901055019 | 64 | 360 | 3.0 | 6.0 | 0.00 | 0.00 | 0.00 | 70 | 1020.5 |
| 20260901054537 | 64 | 360 | 3.0 | 6.0 | 0.00 | 0.00 | 0.00 | 70 | 1020.4 |
| 20260901054017 | 64 | 360 | 4.0 | 6.0 | 0.00 | 0.00 | 0.00 | 70 | 1020.4 |
| 20260901053519 | 65 | 360 | 3.0 | 6.0 | 0.00 | 0.00 | 0.00 | 70 | 1020.5 |
| 20260901053037 | 65 | 360 | 3.0 | 8.0 | 0.00 | 0.00 | 0.00 | 71 | 1020.4 |
| 20260901052519 | 65 | 360 | 4.0 | 8.0 | 0.00 | 0.00 | 0.00 | 71 | 1020.5 |
| 20260901052024 | 65 | 360 | 4.0 | 8.0 | 0.00 | 0.00 | 0.00 | 72 | 1020.5 |
| 20260901051535 | 64 | 360 | 4.0 | 8.0 | 0.00 | 0.00 | 0.00 | 73 | 1020.5 |
| 20260901051020 | 64 | 360 | 4.0 | 8.0 | 0.00 | 0.00 | 0.00 | 74 | 1020.4 |
| 20260901050522 | 64 | 360 | 3.0 | 8.0 | 0.00 | 0.00 | 0.00 | 77 | 1020.3 |
| 20260901050034 | 64 | 360 | 4.0 | 6.0 | 0.00 | 0.00 | 0.00 | 79 | 1020.6 |
| 20260901045519 | 63 | 360 | 4.0 | 6.0 | 0.00 | 0.00 | 0.00 | 81 | 1020.5 |
| 20260901045017 | 63 | 360 | 4.0 | 6.0 | 0.00 | 0.00 | 0.00 | 82 | 1020.5 |
| 20260901044537 | 63 | 360 | 3.0 | 5.0 | 0.00 | 0.00 | 0.00 | 82 | 1020.4 |
| 20260901044020 | 63 | 360 | 3.0 | 4.0 | 0.00 | 0.00 | 0.00 | 82 | 1020.5 |
| 20260901043517 | 63 | 360 | 2.0 | 4.0 | 0.00 | 0.00 | 0.00 | 82 | 1020.4 |
| 20260901043039 | 63 | 360 | 2.0 | 4.0 | 0.00 | 0.00 | 0.00 | 83 | 1020.4 |
| 20260901042516 | 63 | 360 | 2.0 | 4.0 | 0.00 | 0.00 | 0.00 | 83 | 1020.4 |
| 20260901042017 | 63 | 360 | 2.0 | 4.0 | 0.00 | 0.00 | 0.00 | 84 | 1020.3 |
| 20260901041535 | 63 | 360 | 2.0 | 4.0 | 0.00 | 0.00 | 0.00 | 84 | 1020.4 |
| 20260901041021 | 62 | 360 | 1.0 | 4.0 | 0.00 | 0.00 | 0.00 | 84 | 1020.4 |
| 20260901040520 | 62 | 360 | 2.0 | 4.0 | 0.00 | 0.00 | 0.00 | 85 | 1020.3 |
| 20260901040040 | 62 | 360 | 1.0 | 4.0 | 0.00 | 0.00 | 0.00 | 85 | 1020.3 |
| 20260901035519 | 62 | 360 | 2.0 | 4.0 | 0.00 | 0.00 | 0.00 | 85 | 1020.4 |
| 20260901035016 | 61 | 360 | 2.0 | 4.0 | 0.00 | 0.00 | 0.00 | 85 | 1020.5 |
| 20260901034539 | 61 | 360 | 2.0 | 4.0 | 0.00 | 0.00 | 0.00 | 85 | 1020.5 |
| 20260901034018 | 61 | 360 | 2.0 | 4.0 | 0.00 | 0.00 | 0.00 | 85 | 1020.6 |
| 20260901033519 | 61 | 360 | 1.0 | 3.0 | 0.00 | 0.00 | 0.00 | 85 | 1020.5 |
| 20260901033041 | 61 | 360 | 1.0 | 3.0 | 0.00 | 0.00 | 0.00 | 85 | 1020.5 |
| 20260901032519 | 61 | 360 | 2.0 | 3.0 | 0.00 | 0.00 | 0.00 | 85 | 1020.4 |
| 20260901032022 | 61 | 360 | 1.0 | 6.0 | 0.00 | 0.00 | 0.00 | 85 | 1020.4 |
| 20260901031537 | 61 | 360 | 1.0 | 6.0 | 0.00 | 0.00 | 0.00 | 85 | 1020.5 |
| 20260901031019 | 61 | 360 | 1.0 | 4.0 | 0.00 | 0.00 | 0.00 | 85 | 1020.6 |
| 20260901030520 | 61 | 360 | 2.0 | 4.0 | 0.00 | 0.00 | 0.00 | 85 | 1020.6 |
| 20260901030034 | 61 | 360 | 1.0 | 4.0 | 0.00 | 0.00 | 0.00 | 85 | 1020.6 |
| 20260901025521 | 61 | 360 | 2.0 | 4.0 | 0.00 | 0.00 | 0.00 | 85 | 1020.5 |
| 20260901025018 | 61 | 360 | 2.0 | 5.0 | 0.00 | 0.00 | 0.00 | 85 | 1020.5 |
| 20260901024536 | 61 | 360 | 2.0 | 5.0 | 0.00 | 0.00 | 0.00 | 85 | 1020.5 |
| 20260901024018 | 61 | 360 | 2.0 | 5.0 | 0.00 | 0.00 | 0.00 | 86 | 1020.5 |
| 20260901023518 | 60 | 360 | 2.0 | 5.0 | 0.00 | 0.00 | 0.00 | 87 | 1020.5 |
| 20260901023039 | 60 | 360 | 2.0 | 6.0 | 0.00 | 0.00 | 0.00 | 87 | 1020.4 |
| 20260901022516 | 60 | 360 | 3.0 | 6.0 | 0.00 | 0.00 | 0.00 | 87 | 1020.5 |
| 20260901022022 | 60 | 360 | 3.0 | 6.0 | 0.00 | 0.00 | 0.00 | 87 | 1020.4 |
| 20260901021536 | 60 | 360 | 3.0 | 5.0 | 0.00 | 0.00 | 0.00 | 87 | 1020.5 |
| 20260901021019 | 60 | 360 | 3.0 | 5.0 | 0.00 | 0.00 | 0.00 | 87 | 1020.4 |
| 20260901020520 | 60 | 360 | 2.0 | 6.0 | 0.00 | 0.00 | 0.00 | 86 | 1020.4 |
| 20260901020036 | 60 | 360 | 3.0 | 6.0 | 0.00 | 0.00 | 0.00 | 86 | 1020.5 |
| 20260901015518 | 60 | 360 | 2.0 | 6.0 | 0.00 | 0.01 | 0.00 | 86 | 1020.5 |
| 20260901015020 | 60 | 360 | 3.0 | 8.0 | 0.00 | 0.01 | 0.00 | 86 | 1020.4 |
| 20260901014536 | 60 | 360 | 3.0 | 8.0 | 0.00 | 0.01 | 0.00 | 86 | 1020.5 |
| 20260901014018 | 60 | 360 | 2.0 | 8.0 | 0.00 | 0.01 | 0.00 | 85 | 1020.6 |
| 20260901013518 | 60 | 360 | 4.0 | 8.0 | 0.00 | 0.01 | 0.00 | 85 | 1020.5 |
| 20260901013035 | 61 | 360 | 3.0 | 6.0 | 0.00 | 0.01 | 0.00 | 85 | 1020.6 |
| 20260901012518 | 61 | 360 | 1.0 | 6.0 | 0.00 | 0.01 | 0.00 | 84 | 1020.5 |
| 20260901012019 | 61 | 360 | 2.0 | 6.0 | 0.00 | 0.01 | 0.00 | 84 | 1020.6 |
| 20260901011540 | 61 | 360 | 2.0 | 6.0 | 0.00 | 0.01 | 0.00 | 84 | 1020.6 |
| 20260901011020 | 61 | 360 | 3.0 | 6.0 | 0.00 | 0.01 | 0.00 | 84 | 1020.6 |
| 20260901010519 | 61 | 360 | 3.0 | 8.0 | 0.00 | 0.01 | 0.00 | 83 | 1020.5 |
| 20260901010041 | 61 | 360 | 3.0 | 8.0 | 0.00 | 0.01 | 0.00 | 83 | 1020.5 |
| 20260901005519 | 61 | 360 | 3.0 | 8.0 | 0.00 | 0.01 | 0.00 | 83 | 1020.4 |
| 20260901005018 | 61 | 360 | 4.0 | 8.0 | 0.00 | 0.01 | 0.00 | 83 | 1020.5 |
| 20260901004540 | 62 | 360 | 3.0 | 8.0 | 0.00 | 0.01 | 0.00 | 82 | 1020.5 |
| 20260901004018 | 62 | 360 | 3.0 | 8.0 | 0.00 | 0.01 | 0.00 | 82 | 1020.6 |
| 20260901003516 | 62 | 360 | 1.0 | 8.0 | 0.00 | 0.01 | 0.00 | 82 | 1020.6 |
| 20260901003039 | 62 | 360 | 2.0 | 8.0 | 0.00 | 0.01 | 0.00 | 81 | 1020.6 |
| 20260901002520 | 62 | 360 | 2.0 | 8.0 | 0.00 | 0.01 | 0.00 | 81 | 1020.5 |
| 20260901002020 | 62 | 360 | 2.0 | 8.0 | 0.00 | 0.01 | 0.00 | 81 | 1020.6 |
| 20260901001539 | 63 | 360 | 1.0 | 8.0 | 0.00 | 0.01 | 0.00 | 80 | 1020.5 |
| 20260901001019 | 63 | 360 | 2.0 | 8.0 | 0.00 | 0.01 | 0.00 | 80 | 1020.5 |
| 20260901000519 | 63 | 360 | 3.0 | 10.0 | 0.00 | 0.01 | 0.00 | 79 | 1020.4 |
| 20260901000039 | 63 | 360 | 3.0 | 10.0 | 0.00 | 0.01 | 0.00 | 79 | 1020.4 |
| 20260831235518 | 64 | 360 | 2.0 | 8.0 | 0.00 | 0.01 | 0.00 | 79 | 1020.4 |
| 20260831235019 | 64 | 360 | 2.0 | 9.0 | 0.00 | 0.01 | 0.00 | 78 | 1020.4 |
| 20260831234543 | 64 | 0 | 1.0 | 10.0 | 0.00 | 0.01 | 0.00 | 78 | 1020.3 |
| 20260831234017 | 64 | 360 | 1.0 | 10.0 | 0.00 | 0.01 | 0.00 | 78 | 1020.3 |
| 20260831233517 | 64 | 360 | 3.0 | 10.0 | 0.00 | 0.01 | 0.00 | 77 | 1020.4 |
| 20260831233040 | 65 | 360 | 1.0 | 5.0 | 0.00 | 0.01 | 0.00 | 76 | 1020.5 |
| 20260831232521 | 65 | 0 | 1.0 | 10.0 | 0.00 | 0.01 | 0.00 | 76 | 1020.5 |
| 20260831232022 | 65 | 360 | 1.0 | 10.0 | 0.00 | 0.01 | 0.00 | 75 | 1020.7 |
| 20260831231538 | 66 | 360 | 3.0 | 10.0 | 0.00 | 0.01 | 0.00 | 75 | 1020.7 |
| 20260831231027 | 66 | 360 | 1.0 | 8.0 | 0.00 | 0.01 | 0.00 | 74 | 1020.6 |
| 20260831230521 | 66 | 360 | 2.0 | 6.0 | 0.00 | 0.01 | 0.00 | 73 | 1020.7 |
| 20260831230041 | 67 | 360 | 1.0 | 8.0 | 0.00 | 0.01 | 0.00 | 73 | 1020.7 |
| 20260831225516 | 67 | 360 | 2.0 | 9.0 | 0.00 | 0.01 | 0.00 | 72 | 1020.7 |
| 20260831225018 | 67 | 360 | 3.0 | 9.0 | 0.00 | 0.01 | 0.00 | 72 | 1020.7 |
| 20260831224537 | 67 | 360 | 3.0 | 10.0 | 0.00 | 0.01 | 0.00 | 73 | 1020.7 |
| 20260831224016 | 67 | 176 | 4.0 | 10.0 | 0.00 | 0.01 | 0.00 | 72 | 1020.6 |
| 20260831223518 | 68 | 360 | 4.0 | 9.0 | 0.00 | 0.01 | 0.00 | 71 | 1020.6 |
| 20260831223041 | 68 | 154 | 3.0 | 9.0 | 0.00 | 0.01 | 0.00 | 71 | 1020.7 |
| 20260831222520 | 68 | 169 | 1.0 | 8.0 | 0.00 | 0.01 | 0.00 | 70 | 1020.6 |
| 20260831222019 | 68 | 173 | 3.0 | 8.0 | 0.00 | 0.01 | 0.00 | 69 | 1020.7 |
| 20260831221539 | 69 | 0 | 1.0 | 10.0 | 0.00 | 0.01 | 0.00 | 69 | 1020.7 |
| 20260831221019 | 69 | 153 | 2.0 | 10.0 | 0.00 | 0.01 | 0.00 | 68 | 1020.7 |
| 20260831220517 | 69 | 170 | 4.0 | 10.0 | 0.00 | 0.01 | 0.00 | 67 | 1020.6 |
| 20260831220034 | 69 | 182 | 3.0 | 10.0 | 0.00 | 0.01 | 0.00 | 67 | 1020.6 |
| 20260831215523 | 69 | 165 | 2.0 | 12.0 | 0.00 | 0.01 | 0.00 | 67 | 1020.5 |
| 20260831215017 | 69 | 137 | 4.0 | 12.0 | 0.00 | 0.01 | 0.00 | 67 | 1020.5 |
| 20260831214547 | 69 | 126 | 7.0 | 12.0 | 0.00 | 0.01 | 0.00 | 66 | 1020.4 |
| 20260831214019 | 70 | 167 | 7.0 | 12.0 | 0.00 | 0.01 | 0.00 | 67 | 1020.4 |
| 20260831213516 | 70 | 180 | 5.0 | 11.0 | 0.00 | 0.01 | 0.00 | 66 | 1020.6 |
| 20260831213035 | 70 | 130 | 4.0 | 11.0 | 0.00 | 0.01 | 0.00 | 65 | 1020.6 |
| 20260831212519 | 71 | 146 | 4.0 | 12.0 | 0.00 | 0.01 | 0.00 | 64 | 1020.6 |
| 20260831212020 | 71 | 92 | 4.0 | 16.0 | 0.00 | 0.01 | 0.00 | 64 | 1020.5 |
| 20260831211535 | 72 | 122 | 5.0 | 16.0 | 0.00 | 0.01 | 0.00 | 62 | 1020.5 |
| 20260831211016 | 72 | 133 | 5.0 | 13.0 | 0.00 | 0.01 | 0.00 | 62 | 1020.6 |
| 20260831210517 | 72 | 146 | 2.0 | 11.0 | 0.00 | 0.01 | 0.00 | 63 | 1020.7 |
| 20260831210038 | 72 | 184 | 3.0 | 10.0 | 0.00 | 0.01 | 0.00 | 62 | 1020.7 |
| 20260831205518 | 72 | 159 | 5.0 | 10.0 | 0.00 | 0.01 | 0.00 | 61 | 1020.6 |
| 20260831205016 | 72 | 139 | 3.0 | 14.0 | 0.00 | 0.01 | 0.00 | 62 | 1020.6 |
| 20260831204535 | 72 | 131 | 3.0 | 14.0 | 0.00 | 0.01 | 0.00 | 61 | 1020.6 |
| 20260831204021 | 72 | 163 | 3.0 | 11.0 | 0.00 | 0.01 | 0.00 | 62 | 1020.6 |
| 20260831203519 | 72 | 181 | 4.0 | 10.0 | 0.00 | 0.01 | 0.00 | 62 | 1020.7 |
| 20260831203037 | 73 | 134 | 5.0 | 10.0 | 0.00 | 0.01 | 0.00 | 61 | 1020.7 |
| 20260831202516 | 73 | 135 | 5.0 | 13.0 | 0.00 | 0.01 | 0.00 | 60 | 1020.7 |
| 20260831202018 | 73 | 160 | 5.0 | 13.0 | 0.00 | 0.01 | 0.00 | 60 | 1020.8 |
| 20260831201535 | 74 | 117 | 3.0 | 12.0 | 0.00 | 0.01 | 0.00 | 58 | 1020.7 |
| 20260831201021 | 74 | 156 | 3.0 | 12.0 | 0.00 | 0.01 | 0.00 | 57 | 1020.6 |
| 20260831200520 | 75 | 0 | 4.0 | 12.0 | 0.00 | 0.01 | 0.00 | 55 | 1020.6 |
| 20260831200036 | 75 | 0 | 2.0 | 9.0 | 0.00 | 0.01 | 0.00 | 49 | 1020.5 |
| 20260831195518 | 75 | 0 | 0.0 | 6.0 | 0.00 | 0.01 | 0.00 | 43 | 1020.6 |
| 20260831195019 | 75 | 273 | 1.0 | 9.0 | 0.00 | 0.01 | 0.00 | 46 | 1020.7 |
| 20260831194536 | 75 | 0 | 2.0 | 9.0 | 0.00 | 0.01 | 0.00 | 46 | 1020.8 |
| 20260831194017 | 75 | 315 | 3.0 | 9.0 | 0.00 | 0.01 | 0.00 | 47 | 1021.0 |
| 20260831193517 | 75 | 268 | 1.0 | 7.0 | 0.00 | 0.01 | 0.00 | 47 | 1021.1 |
| 20260831193104 | 75 | 338 | 2.0 | 10.0 | 0.00 | 0.01 | 0.00 | 46 | 1021.1 |
| 20260831192516 | 75 | 228 | 2.0 | 10.0 | 0.00 | 0.01 | 0.00 | 44 | 1021.1 |
| 20260831192019 | 76 | 223 | 2.0 | 7.0 | 0.00 | 0.01 | 0.00 | 43 | 1021.3 |
| 20260831191538 | 76 | 216 | 1.0 | 11.0 | 0.00 | 0.01 | 0.00 | 42 | 1021.2 |
| 20260831191018 | 76 | 189 | 2.0 | 11.0 | 0.00 | 0.01 | 0.00 | 43 | 1021.3 |
| 20260831190521 | 76 | 257 | 6.0 | 14.0 | 0.00 | 0.01 | 0.00 | 42 | 1021.3 |
| 20260831190043 | 76 | 288 | 4.0 | 14.0 | 0.00 | 0.01 | 0.00 | 41 | 1021.4 |
| 20260831185521 | 76 | 260 | 6.0 | 14.0 | 0.00 | 0.01 | 0.00 | 42 | 1021.4 |
| 20260831185018 | 76 | 306 | 4.0 | 13.0 | 0.00 | 0.01 | 0.00 | 41 | 1021.4 |
| 20260831184536 | 76 | 264 | 7.0 | 12.0 | 0.00 | 0.01 | 0.00 | 41 | 1021.4 |
| 20260831184016 | 76 | 296 | 2.0 | 6.0 | 0.00 | 0.01 | 0.00 | 41 | 1021.3 |
| 20260831183519 | 76 | 0 | 1.0 | 7.0 | 0.00 | 0.01 | 0.00 | 39 | 1021.3 |
| 20260831183044 | 76 | 0 | 1.0 | 7.0 | 0.00 | 0.01 | 0.00 | 44 | 1021.3 |
| 20260831182516 | 76 | 0 | 2.0 | 6.0 | 0.00 | 0.01 | 0.00 | 45 | 1021.3 |
| 20260831182018 | 76 | 0 | 0.0 | 6.0 | 0.00 | 0.01 | 0.00 | 44 | 1021.4 |
| 20260831181549 | 75 | 242 | 0.0 | 7.0 | 0.00 | 0.01 | 0.00 | 45 | 1021.4 |
| 20260831181020 | 75 | 0 | 1.0 | 9.0 | 0.00 | 0.01 | 0.00 | 45 | 1021.4 |
| 20260831180520 | 75 | 164 | 3.0 | 9.0 | 0.00 | 0.01 | 0.00 | 45 | 1021.4 |